Location: *
(58.7167°N, 26.1833°E)
Time: 07:40:50
(UTC+00:00)

Terra - Pass Details

Date: 25 August 2019
Orbit: 701 x 703 km, 98.2° (Epoch: 22 September)

Event Time Altitude Azimuth Distance (km) Brightness Sun altitude
Exits shadow 20:53:14 18° 214° (SW) 1,697 3.5 -18.6°
Maximum altitude 20:56:02 32° 266° (W) 1,211 3.2 -18.7°
Drops below altitude 10° 21:00:19 10° 329° (NNW) 2,186 5.6 -18.9°
Sets 21:02:49 0° 340° (NNW) 3,109 6.8 -19.0°
